TimeCST,TemperatureF,Dew PointF,Humidity,Sea Level PressureIn,VisibilityMPH,Wind Direction,Wind SpeedMPH,Gust SpeedMPH,PrecipitationIn,Events,Conditions,WindDirDegrees,DateUTC
12:15 AM,23.7,19.8,85,30.15,10.0,NNW,9.2,-,N/A,,Overcast,330,2013-01-01 06:15:00
12:35 AM,23.5,19.4,84,30.15,10.0,Calm,Calm,-,N/A,,Overcast,0,2013-01-01 06:35:00
12:55 AM,23.5,19.6,85,30.15,10.0,North,6.9,-,N/A,,Overcast,350,2013-01-01 06:55:00
1:15 AM,23.4,18.0,80,30.15,10.0,North,8.1,-,N/A,,Overcast,360,2013-01-01 07:15:00
1:35 AM,23.4,18.1,80,30.16,10.0,North,5.8,-,N/A,,Overcast,350,2013-01-01 07:35:00
1:55 AM,23.4,18.9,83,30.17,10.0,Calm,Calm,-,N/A,,Overcast,0,2013-01-01 07:55:00
2:15 AM,23.4,19.2,84,30.17,10.0,Calm,Calm,-,N/A,,Overcast,0,2013-01-01 08:15:00
2:35 AM,23.4,18.9,83,30.18,10.0,Calm,Calm,-,N/A,,Overcast,0,2013-01-01 08:35:00
2:55 AM,23.0,17.6,80,30.17,10.0,North,8.1,-,N/A,,Overcast,350,2013-01-01 08:55:00
3:15 AM,22.8,17.8,81,30.18,10.0,Calm,Calm,-,N/A,,Overcast,0,2013-01-01 09:15:00
3:35 AM,22.8,17.4,80,30.18,10.0,NNW,5.8,-,N/A,,Overcast,330,2013-01-01 09:35:00
3:55 AM,22.6,17.4,80,30.18,10.0,NNW,9.2,-,N/A,,Overcast,330,2013-01-01 09:55:00
4:15 AM,22.1,17.1,81,30.18,10.0,NW,8.1,-,N/A,,Overcast,320,2013-01-01 10:15:00
4:35 AM,22.1,16.7,80,30.19,10.0,NW,4.6,-,N/A,,Overcast,320,2013-01-01 10:35:00
4:55 AM,21.7,16.3,80,30.19,10.0,NNW,4.6,-,N/A,,Overcast,330,2013-01-01 10:55:00
5:15 AM,21.0,15.8,80,30.19,10.0,Calm,Calm,-,N/A,,Mostly Cloudy,0,2013-01-01 11:15:00
5:35 AM,20.8,15.8,81,30.19,10.0,Calm,Calm,-,N/A,,Overcast,0,2013-01-01 11:35:00
5:55 AM,19.9,15.1,81,30.19,10.0,Calm,Calm,-,N/A,,Scattered Clouds,0,2013-01-01 11:55:00
6:15 AM,18.9,14.7,84,30.19,10.0,Calm,Calm,-,N/A,,Clear,0,2013-01-01 12:15:00
6:35 AM,18.9,14.5,83,30.19,10.0,Calm,Calm,-,N/A,,Clear,0,2013-01-01 12:35:00
6:55 AM,17.6,13.5,84,30.16,10.0,North,4.6,-,N/A,,Clear,350,2013-01-01 12:55:00
7:15 AM,18.3,14.2,84,30.15,10.0,Calm,Calm,-,N/A,,Clear,0,2013-01-01 13:15:00
7:35 AM,18.3,13.8,83,30.23,10.0,Calm,Calm,-,N/A,,Clear,0,2013-01-01 13:35:00
7:55 AM,16.9,12.7,84,30.25,10.0,Calm,Calm,-,N/A,,Clear,0,2013-01-01 13:55:00
8:15 AM,16.5,12.6,84,30.24,10.0,Calm,Calm,-,N/A,,Clear,0,2013-01-01 14:15:00
8:35 AM,16.7,12.9,85,30.24,10.0,Calm,Calm,-,N/A,,Clear,0,2013-01-01 14:35:00
8:55 AM,17.6,14.0,86,30.25,10.0,Calm,Calm,-,N/A,,Clear,0,2013-01-01 14:55:00
9:15 AM,17.1,12.6,82,30.26,10.0,Calm,Calm,-,N/A,,Clear,0,2013-01-01 15:15:00
9:35 AM,18.1,12.7,79,30.26,10.0,NW,5.8,-,N/A,,Clear,320,2013-01-01 15:35:00
9:55 AM,18.5,12.9,79,30.27,10.0,NNW,8.1,-,N/A,,Clear,330,2013-01-01 15:55:00
10:15 AM,19.4,13.1,76,30.27,10.0,NW,5.8,-,N/A,,Clear,320,2013-01-01 16:15:00
10:35 AM,20.1,13.5,75,30.26,10.0,NW,10.4,-,N/A,,Clear,320,2013-01-01 16:35:00
10:55 AM,20.3,13.8,76,30.26,10.0,NW,12.7,-,N/A,,Clear,320,2013-01-01 16:55:00
11:15 AM,21.2,14.0,74,30.25,10.0,NW,9.2,-,N/A,,Clear,320,2013-01-01 17:15:00
11:35 AM,21.7,13.8,72,30.25,10.0,NNW,8.1,-,N/A,,Clear,340,2013-01-01 17:35:00
11:55 AM,21.9,14.0,72,30.25,10.0,NW,8.1,-,N/A,,Clear,320,2013-01-01 17:55:00
12:15 PM,22.3,14.0,71,30.23,10.0,NNW,6.9,-,N/A,,Clear,330,2013-01-01 18:15:00
12:35 PM,22.5,14.5,72,30.23,10.0,NW,8.1,-,N/A,,Clear,320,2013-01-01 18:35:00
12:55 PM,23.4,14.5,69,30.21,10.0,NW,9.2,-,N/A,,Clear,320,2013-01-01 18:55:00
1:15 PM,23.4,14.0,67,30.22,10.0,NW,6.9,-,N/A,,Clear,320,2013-01-01 19:15:00
1:35 PM,23.5,13.5,65,30.21,10.0,NW,8.1,-,N/A,,Clear,320,2013-01-01 19:35:00
1:55 PM,24.8,14.0,64,30.21,10.0,NW,9.2,-,N/A,,Clear,310,2013-01-01 19:55:00
2:15 PM,23.9,13.1,63,30.21,10.0,NNW,6.9,-,N/A,,Clear,330,2013-01-01 20:15:00
2:35 PM,23.9,12.6,62,30.21,10.0,NNW,5.8,-,N/A,,Clear,330,2013-01-01 20:35:00
2:55 PM,23.5,13.6,66,30.21,10.0,NW,5.8,-,N/A,,Scattered Clouds,310,2013-01-01 20:55:00
3:15 PM,22.1,13.1,68,30.22,10.0,NW,5.8,-,N/A,,Mostly Cloudy,310,2013-01-01 21:15:00
3:35 PM,22.1,13.1,68,30.23,10.0,NW,9.2,-,N/A,,Scattered Clouds,310,2013-01-01 21:35:00
3:55 PM,21.9,12.9,68,30.23,10.0,NW,9.2,-,N/A,,Scattered Clouds,310,2013-01-01 21:55:00
4:15 PM,21.6,12.7,69,30.24,10.0,WNW,6.9,-,N/A,,Scattered Clouds,300,2013-01-01 22:15:00
4:35 PM,21.0,12.4,69,30.25,10.0,NW,5.8,-,N/A,,Mostly Cloudy,310,2013-01-01 22:35:00
4:55 PM,20.3,11.5,69,30.24,10.0,NW,6.9,-,N/A,,Mostly Cloudy,310,2013-01-01 22:55:00
5:15 PM,19.6,11.3,70,30.24,10.0,Calm,Calm,-,N/A,,Overcast,0,2013-01-01 23:15:00
5:35 PM,19.0,10.0,68,30.24,10.0,NW,4.6,-,N/A,,Scattered Clouds,310,2013-01-01 23:35:00
5:55 PM,16.9,9.7,73,30.26,10.0,Calm,Calm,-,N/A,,Clear,0,2013-01-01 23:55:00
6:15 PM,14.7,7.5,73,30.25,10.0,Calm,Calm,-,N/A,,Clear,0,2013-01-02 00:15:00
6:35 PM,15.1,8.8,76,30.26,10.0,Calm,Calm,-,N/A,,Clear,0,2013-01-02 00:35:00
6:55 PM,14.0,9.3,82,30.26,10.0,Calm,Calm,-,N/A,,Clear,0,2013-01-02 00:55:00
7:15 PM,13.8,9.5,83,30.26,10.0,Calm,Calm,-,N/A,,Clear,0,2013-01-02 01:15:00
7:35 PM,13.5,8.8,82,30.25,10.0,Calm,Calm,-,N/A,,Clear,0,2013-01-02 01:35:00
7:55 PM,11.1,7.5,85,30.24,10.0,Calm,Calm,-,N/A,,Clear,0,2013-01-02 01:55:00
8:15 PM,10.6,7.7,88,30.24,10.0,Calm,Calm,-,N/A,,Clear,0,2013-01-02 02:15:00
8:35 PM,10.4,7.5,88,30.24,10.0,Calm,Calm,-,N/A,,Clear,0,2013-01-02 02:35:00
8:55 PM,11.8,9.1,89,30.25,7.0,Calm,Calm,-,N/A,,Clear,0,2013-01-02 02:55:00
9:15 PM,10.2,7.3,88,30.26,7.0,Calm,Calm,-,N/A,,Clear,0,2013-01-02 03:15:00
9:35 PM,10.9,7.9,87,30.25,7.0,Calm,Calm,-,N/A,,Clear,0,2013-01-02 03:35:00
9:55 PM,8.6,5.2,86,30.25,7.0,Calm,Calm,-,N/A,,Clear,0,2013-01-02 03:55:00
10:15 PM,9.5,6.4,87,30.26,7.0,SW,4.6,-,N/A,,Clear,220,2013-01-02 04:15:00
10:35 PM,9.0,5.7,87,30.25,7.0,Calm,Calm,-,N/A,,Clear,0,2013-01-02 04:35:00
10:55 PM,9.1,5.7,86,30.26,5.0,Calm,Calm,-,N/A,,Clear,0,2013-01-02 04:55:00
11:15 PM,9.5,5.9,85,30.25,7.0,Calm,Calm,-,N/A,,Clear,0,2013-01-02 05:15:00
11:35 PM,9.3,5.7,85,30.25,7.0,Calm,Calm,-,N/A,,Clear,0,2013-01-02 05:35:00
11:55 PM,10.2,7.3,88,30.24,7.0,Calm,Calm,-,N/A,,Clear,0,2013-01-02 05:55:00